Voltar ao catálogo

STARLINK-37952

AtivoComunicaçõesSSO
NORAD 69561·PAYLOAD·🇺🇸 United States

Lançado Jun 15, 2026 de Vandenberg Space Force Base

Loading…

Próximas Passagens (próximas 24 horas)

TLE

AtualizadoSource: CelesTrak SupGP

Época: Sep 15, 2026, 03:12 UTC

1 69561C 26135R   26258.13381944 -.00045387  00000+0 -14090-2 0  2582
2 69561  97.2833 285.9262 0001284  92.3818 122.4630 15.33461320    18

Acompanhe STARLINK-37952 em tempo real com AllMySat

Download on the App Store